GFSSE_500_rhum_093.txt.gz
RH
12 7 6 6 7 6 5 4 5 5 6 7 8 7 4 4 4 4 5 7 11 10 20 48 69 77 71 66 67 60 61 49 49 47 32 31 34 37 37 32 30 31 29
8 6 6 5 7 7 7 6 6 5 5 6 6 7 7 6 5 6 7 9 9 13 26 66 93 90 80 76 71 61 54 48 47 42 35 32 35 38 35 31 32 31 32
8 6 4 5 6 7 6 8 6 6 7 8 8 10 12 15 15 14 15 12 8 15 31 69 99 94 89 77 64 53 42 33 28 32 41 37 39 36 31 32 34 33 35
8 5 3 4 7 8 12 16 12 7 14 19 22 26 27 27 27 27 24 20 10 9 19 64 86 91 87 76 63 57 38 32 25 31 34 33 37 32 31 37 34 34 40
12 6 4 5 6 8 12 17 21 11 8 14 28 28 24 26 28 31 31 30 23 10 18 35 76 97 87 89 77 59 36 32 25 28 33 42 36 36 45 41 38 34 43
12 6 5 6 8 11 15 17 19 19 16 12 21 22 26 34 42 47 59 56 40 24 14 29 68 100 90 88 78 48 28 25 25 34 51 50 60 66 61 60 56 42 49
14 8 6 6 8 13 16 20 19 18 21 23 53 52 21 32 39 45 75 97 83 53 70 44 54 92 95 91 88 46 35 29 37 62 55 82 68 59 54 52 46 46 47
18 14 9 10 9 10 12 19 19 23 22 25 39 47 50 90 96 80 90 92 95 58 60 82 61 87 97 96 80 48 30 34 65 67 87 62 52 61 66 56 55 51 44
24 18 18 18 8 10 18 24 22 15 17 24 51 79 88 98 97 96 98 96 96 89 61 85 81 100 97 84 71 64 40 46 53 94 87 77 65 75 67 67 68 60 48
30 23 22 22 6 7 15 25 21 21 49 42 51 95 97 97 98 96 95 95 96 96 63 87 88 90 97 78 77 54 79 86 75 95 88 61 87 73 82 84 72 72 66
32 26 25 22 6 6 9 22 27 33 28 24 34 86 93 96 94 86 93 93 97 95 94 85 93 96 97 66 54 69 85 86 96 86 72 93 89 91 92 74 73 70 70
32 25 25 21 5 8 10 18 24 24 24 28 27 84 87 90 86 88 92 91 97 96 97 98 83 96 97 93 82 95 82 89 90 95 92 90 92 93 88 82 82 83 75
29 23 27 19 6 9 11 13 20 23 26 32 27 62 96 97 96 97 87 84 95 96 95 80 76 86 100 99 98 92 82 92 94 96 94 96 94 92 88 88 86 87 84
27 24 28 15 6 9 13 16 27 23 24 32 32 45 95 95 97 96 93 96 95 96 88 77 76 80 92 97 96 96 88 95 98 94 96 92 93 89 82 87 85 90 77
34 28 28 14 6 9 14 19 21 22 25 28 36 45 89 97 95 92 90 96 97 98 86 74 89 90 89 97 100 96 87 90 98 95 96 91 94 91 88 84 85 83 79
46 36 28 14 8 12 20 18 17 19 24 27 28 31 81 94 97 96 96 96 96 97 87 85 92 98 86 91 97 95 88 96 97 96 94 87 78 93 91 80 84 80 80
53 40 28 13 11 13 21 17 18 17 20 29 26 27 30 62 96 97 97 97 97 97 96 90 81 80 79 84 100 88 100 96 92 99 94 89 74 86 95 90 93 97 93
51 39 26 10 13 16 20 19 24 24 21 27 33 27 24 22 35 92 95 96 95 96 91 93 74 77 87 88 95 92 97 98 96 98 96 90 89 87 89 92 94 94 92
42 37 22 9 15 17 24 26 26 23 27 24 30 35 29 27 32 46 86 92 95 94 86 88 79 79 91 94 91 88 97 97 94 97 98 94 89 91 91 95 96 91 96
37 38 20 10 15 20 28 25 19 18 32 28 27 32 32 32 39 43 43 48 53 60 54 66 78 80 91 96 98 96 98 94 98 95 95 96 96 95 89 93 96 94 96
41 34 18 11 16 21 26 20 18 16 34 30 26 26 29 28 30 45 50 48 98 96 44 50 54 59 78 74 91 95 90 86 91 96 97 97 97 97 96 97 97 97 96
46 33 14 11 17 17 20 18 15 15 22 33 27 22 22 25 45 33 38 97 47 41 44 77 76 56 58 86 98 96 96 95 96 96 97 95 94 87 99 97 97 99 98
44 24 12 13 18 17 16 14 16 15 13 21 36 28 24 26 31 38 88 53 73 49 95 96 98 94 88 98 98 97 97 96 98 97 96 92 86 90 81 93 95 95 98
40 27 14 14 20 20 15 12 13 17 16 9 12 32 42 42 40 44 72 70 97 48 56 84 100 96 94 100 98 97 97 98 95 94 95 95 91 92 89 98 99 98 98
38 30 15 13 22 21 14 12 12 18 18 17 10 7 9 29 38 63 87 87 70 84 98 94 98 97 94 96 97 98 97 98 93 93 97 97 97 100 99 99 96 98 99
45 33 17 14 19 21 16 14 12 15 20 19 19 16 7 7 35 72 93 89 81 97 98 97 97 100 96 97 97 97 97 96 97 97 97 97 98 97 98 99 98 98 98

GFSSE_500_rhum_096.txt.gz
RH
24 14 8 7 5 5 5 6 4 4 4 4 4 4 5 6 7 5 4 6 6 7 10 15 27 54 72 72 67 66 65 66 58 51 37 30 28 30 34 36 34 29 31
20 11 9 7 5 4 3 4 4 5 6 6 6 6 5 5 6 7 6 4 5 6 7 13 33 67 86 82 75 73 69 65 62 45 49 43 27 30 33 35 30 32 32
16 12 11 10 5 3 3 4 4 7 11 10 7 11 12 10 10 13 13 11 13 12 8 9 35 73 93 94 84 79 71 56 48 46 44 38 29 30 31 31 32 34 34
17 16 14 9 5 4 5 5 5 8 12 13 10 10 15 16 23 24 26 25 23 17 9 9 26 61 99 95 89 68 49 39 35 26 32 35 32 31 36 65 36 36 34
22 20 16 8 6 6 6 6 6 9 12 13 13 10 9 19 25 23 22 25 29 30 23 12 15 45 98 88 85 56 58 36 19 18 27 26 27 40 60 35 33 37 37
26 24 15 12 9 9 11 9 6 8 13 13 15 15 12 24 18 23 28 32 36 47 44 31 24 34 97 89 70 90 57 22 16 16 18 23 34 48 40 79 72 66 46
28 26 21 15 14 17 14 7 6 8 14 17 61 55 25 96 93 80 44 50 48 75 91 61 28 32 59 95 79 79 35 33 17 16 21 29 53 58 39 66 50 54 62
24 27 24 21 21 20 10 5 6 12 15 16 24 28 30 37 62 96 91 95 96 96 98 94 79 32 60 100 74 78 84 25 18 19 24 36 47 85 81 77 73 72 73
26 24 28 25 24 22 8 5 8 13 20 16 17 43 44 48 72 90 94 97 96 96 96 95 81 55 60 98 93 60 89 42 15 18 42 70 88 29 46 72 88 88 68
24 23 27 27 24 21 7 6 7 19 25 37 56 39 33 75 96 95 97 96 98 96 96 96 75 81 81 81 95 94 28 49 30 19 42 80 79 78 88 81 79 89 68
26 25 26 28 24 18 7 7 9 20 29 30 34 32 35 55 97 98 98 96 88 88 94 96 69 78 85 94 92 72 29 42 20 45 70 92 61 82 90 94 93 84 72
33 32 26 26 23 18 8 6 8 14 19 24 26 26 32 31 90 96 96 85 91 87 87 97 67 80 85 86 88 77 24 40 46 82 92 82 61 95 95 90 91 84 84
36 35 27 23 21 18 10 6 9 11 13 21 25 26 27 31 79 99 98 89 87 97 97 97 90 93 96 98 94 70 32 33 62 85 93 91 94 97 96 94 90 84 86
32 36 29 23 24 20 11 6 11 15 21 22 22 25 27 36 77 97 97 94 84 94 97 96 94 98 87 84 85 95 79 80 95 86 93 94 97 95 93 87 86 86 86
28 38 29 23 27 21 11 8 11 15 18 21 24 24 26 38 80 97 96 89 80 94 97 97 96 94 97 82 83 94 97 97 92 92 98 92 94 93 91 93 95 89 82
34 36 29 25 29 19 10 7 11 16 17 17 24 24 26 33 57 97 97 97 91 98 96 97 97 89 85 87 82 90 90 92 96 96 98 95 95 89 94 93 94 98 92
40 39 29 32 30 17 8 10 12 16 17 17 22 26 26 28 38 96 99 96 96 96 96 97 96 81 76 78 86 90 98 97 95 90 95 98 98 90 94 90 89 94 99
40 41 28 40 30 14 8 10 11 23 24 22 23 26 29 27 30 51 96 97 97 97 97 97 95 88 91 95 94 83 97 98 95 94 93 96 97 96 93 83 88 96 98
41 45 31 40 28 13 8 11 16 26 22 24 25 27 29 29 27 30 81 97 97 97 97 97 96 96 97 95 98 75 82 93 97 96 93 96 97 97 95 91 84 89 88
46 43 32 33 32 12 9 13 20 20 18 21 27 31 32 32 29 30 35 73 97 97 96 96 96 97 96 95 92 83 91 89 90 89 95 85 96 98 97 93 92 93 96
53 47 31 31 36 11 11 16 19 18 16 18 31 36 30 26 29 32 41 37 81 90 91 72 66 78 95 96 93 88 84 82 81 83 86 96 97 98 98 96 96 95 95
71 55 32 35 29 11 15 16 16 15 15 14 20 36 32 26 24 33 36 45 77 92 68 94 82 42 70 96 98 98 96 95 96 98 96 96 95 96 95 98 98 100 98
80 55 35 32 20 12 17 17 14 14 15 15 10 18 37 28 26 25 42 43 96 78 93 96 96 42 70 65 85 89 94 92 97 96 96 97 97 100 96 95 97 96 96
76 59 39 30 18 14 17 17 12 13 12 17 15 9 14 33 39 35 34 55 56 71 97 76 52 73 98 91 97 97 90 98 96 96 97 97 98 97 97 96 96 95 98
84 68 44 31 18 15 17 17 12 12 13 16 18 18 11 6 14 40 47 48 70 62 95 79 69 81 97 97 99 99 97 97 97 98 96 94 95 98 97 96 95 94 97
69 63 43 34 17 17 16 17 14 13 13 14 18 20 20 15 8 15 46 63 88 86 84 91 69 76 97 98 97 96 96 97 97 97 89 89 90 97 97 97 98 98 97

GFSSE_500_rhum_099.txt.gz
RH
15 15 11 8 8 8 4 3 3 3 3 3 4 4 4 5 4 4 7 6 6 8 7 7 8 12 23 36 52 70 70 59 56 35 61 52 20 23 25 32 35 33 29
9 11 10 11 11 9 5 4 3 4 3 3 5 7 6 8 8 5 5 6 5 5 5 6 8 16 34 60 71 78 72 64 66 66 54 61 33 23 24 28 30 31 33
10 12 11 13 13 9 7 7 6 4 4 4 8 9 8 10 14 11 10 8 9 7 6 5 8 15 42 71 85 86 76 76 70 62 57 57 41 24 21 28 31 32 37
10 13 13 14 13 11 9 8 9 8 4 4 10 11 11 8 11 16 19 23 20 17 22 18 11 18 45 76 96 87 79 67 57 53 55 43 25 18 21 27 49 61 49
9 13 13 14 14 13 12 12 11 8 3 3 7 11 13 13 10 11 31 30 44 41 32 28 16 18 61 100 96 91 66 44 37 42 47 38 30 18 22 39 53 29 36
10 13 16 16 16 15 13 12 11 4 2 8 10 10 14 27 21 30 35 50 40 36 38 47 35 19 40 90 93 79 64 33 22 20 19 27 25 21 34 59 62 68 69
13 16 18 18 18 16 14 14 9 3 3 12 12 19 24 80 90 43 88 96 79 58 74 73 68 39 30 65 96 73 55 62 20 24 15 17 16 18 29 28 80 38 46
15 15 21 20 19 18 18 14 6 3 3 7 19 32 47 33 40 87 64 93 95 96 90 95 97 84 37 65 97 70 17 86 53 16 14 14 13 21 32 42 79 70 62
18 17 22 21 21 22 20 15 7 3 4 10 15 30 33 61 52 46 62 71 94 96 96 95 97 95 44 78 100 86 41 72 16 26 14 15 14 26 56 81 38 77 57
23 20 20 20 22 22 23 16 8 5 5 13 24 58 53 42 32 52 72 86 94 92 89 86 96 96 82 50 76 96 65 72 72 16 13 15 16 40 72 37 85 83 84
26 23 19 20 22 21 23 17 9 5 5 11 31 28 20 24 28 45 72 92 95 86 93 98 96 97 84 50 51 88 82 36 46 14 16 20 21 62 93 87 82 74 89
29 27 22 21 25 21 20 18 10 5 7 15 21 17 22 26 38 32 48 98 96 92 95 96 97 97 91 66 58 78 96 56 18 32 27 48 24 69 47 90 93 95 88
34 32 27 24 23 23 19 18 12 6 7 10 16 16 27 29 36 37 39 96 95 91 95 97 97 86 87 79 68 95 44 22 16 57 19 30 60 94 72 96 91 94 91
38 36 30 25 21 22 21 20 13 6 8 10 16 20 24 28 34 33 43 82 89 92 94 96 96 85 89 77 73 84 75 47 20 25 34 58 86 95 95 93 96 96 93
34 37 32 27 21 22 22 21 12 6 7 12 15 18 21 28 28 34 51 81 86 98 91 86 97 94 90 87 84 93 90 52 57 52 58 88 86 96 94 99 94 97 95
36 42 35 30 24 22 23 24 10 6 9 12 14 18 20 26 30 29 39 94 95 92 98 94 97 97 96 92 71 87 96 90 87 84 91 94 90 97 98 98 98 98 93
40 44 40 33 27 22 27 25 9 7 9 11 16 22 21 25 30 30 40 96 97 98 93 92 97 98 93 93 84 75 86 88 91 94 89 97 98 95 95 97 97 96 91
39 45 42 38 29 22 28 23 9 10 11 17 24 23 25 26 27 35 33 95 98 96 96 97 97 97 91 88 85 79 76 90 91 97 96 92 95 98 97 93 95 98 97
40 41 44 41 30 23 25 22 10 15 18 22 19 19 28 28 28 30 30 79 97 97 89 97 97 97 96 88 80 88 89 88 95 88 98 89 86 90 98 96 95 94 98
41 41 42 42 34 25 26 25 11 16 18 18 16 16 31 29 27 25 29 38 96 97 99 96 97 97 96 95 83 88 99 95 83 86 87 82 80 84 98 96 99 94 93
41 41 48 50 45 28 25 27 13 17 16 14 15 15 27 30 28 23 27 32 66 96 96 97 97 96 97 97 96 94 75 80 76 75 92 91 86 92 91 97 91 98 99
36 43 58 54 58 37 27 26 16 17 15 11 16 13 14 30 30 22 27 29 42 90 97 97 96 96 97 97 98 95 88 86 90 90 97 97 96 94 98 97 96 97 97
33 46 63 70 68 43 32 23 18 17 14 10 15 16 10 16 28 25 28 29 37 44 94 95 93 96 90 85 96 94 98 98 97 97 97 97 92 96 89 94 98 93 87
44 58 73 81 68 46 34 17 19 17 13 12 14 17 16 8 14 27 28 30 31 64 60 98 96 91 97 82 61 64 74 94 96 97 97 98 96 97 94 99 99 85 91
48 71 89 84 67 41 37 15 20 17 13 13 13 18 18 17 9 8 17 28 32 72 86 83 99 90 96 76 66 97 93 93 94 96 96 97 97 97 96 92 91 90 97
56 86 91 84 66 39 38 15 20 17 14 14 14 18 18 18 17 12 8 18 34 47 49 71 78 86 96 75 83 95 96 97 97 97 96 97 97 93 88 86 95 97 96

GFSSE_500_rhum_105.txt.gz
RH
7 8 6 5 6 8 8 7 7 6 6 6 6 4 2 1 2 2 3 3 2 4 8 11 14 20 27 20 19 25 30 40 51 56 53 48 28 21 16 53 63 56 56
8 8 8 7 6 6 6 7 7 7 7 6 5 5 3 2 3 3 4 5 5 4 6 7 9 12 16 29 35 34 41 50 54 58 54 55 63 65 34 54 52 52 36
8 7 9 10 8 8 8 7 6 6 7 6 6 5 3 5 4 5 7 10 10 8 5 6 6 8 12 14 29 42 48 52 63 63 50 54 64 68 51 32 36 28 27
8 9 9 10 10 9 10 9 7 6 6 7 7 4 4 5 5 8 12 8 18 32 34 12 15 25 25 14 27 48 58 68 71 65 64 82 77 73 65 19 20 25 28
8 7 9 10 10 10 10 11 10 10 8 6 5 5 7 9 10 20 31 39 16 25 49 66 66 46 41 28 47 61 73 70 67 66 78 89 85 70 64 13 19 26 43
7 7 10 9 9 10 10 11 11 10 8 7 6 4 8 11 40 34 54 52 57 42 86 95 90 96 48 32 53 67 78 74 71 69 78 88 82 43 32 16 19 26 49
7 8 10 9 9 10 12 12 13 11 9 8 7 4 13 53 83 88 59 68 51 64 77 84 93 82 68 39 34 66 81 80 76 74 65 61 60 31 23 19 19 29 32
6 8 10 9 10 10 13 14 14 12 11 11 9 14 36 38 44 44 36 44 35 43 52 93 92 95 76 75 49 63 62 66 76 65 68 51 33 54 36 15 18 31 49
7 7 10 10 12 12 17 17 15 12 10 12 9 10 7 11 26 29 52 46 36 34 58 96 94 92 96 85 81 60 87 92 80 70 36 42 45 30 25 14 17 23 37
6 6 6 9 11 13 18 19 17 14 11 11 14 10 11 15 26 61 44 34 30 40 58 69 76 94 96 95 95 87 70 95 75 72 34 27 20 21 16 14 16 16 19
6 5 6 6 10 13 17 22 20 16 12 11 15 12 12 24 41 58 35 20 27 42 46 73 79 93 97 97 97 97 93 89 70 66 47 43 33 14 13 13 14 21 32
8 7 7 6 9 14 16 22 24 20 15 12 15 25 26 22 31 39 50 28 26 44 41 66 91 94 97 96 96 97 95 83 67 57 64 70 29 15 13 13 14 21 56
9 9 8 8 9 13 18 20 25 23 17 13 16 26 32 26 48 47 51 37 29 31 53 52 96 91 96 97 95 97 96 79 75 55 60 66 21 15 13 14 16 28 49
12 11 10 10 11 12 15 22 25 26 20 13 15 12 24 13 30 35 39 35 37 31 38 38 89 89 97 97 95 94 92 76 67 62 55 77 37 16 14 30 36 37 67
14 14 13 12 10 15 16 24 27 29 24 16 18 10 7 14 19 28 21 23 20 24 28 56 83 88 95 96 97 97 86 60 51 84 68 66 27 18 20 32 30 65 88
17 14 12 14 14 20 21 25 28 32 27 18 21 10 8 10 13 16 14 15 18 21 36 58 84 86 96 96 97 96 91 68 45 68 75 73 45 56 46 29 54 80 90
16 15 12 21 16 21 24 25 27 34 30 20 20 10 9 13 13 19 28 29 26 28 36 52 76 80 97 95 98 98 88 71 33 70 72 41 38 51 52 51 66 86 83
19 17 13 18 14 18 23 24 27 34 32 23 22 12 11 18 17 16 20 27 30 35 34 45 76 78 95 97 97 94 77 73 48 74 66 48 44 57 63 60 78 89 90
21 18 12 14 14 17 22 25 25 37 35 27 24 14 12 18 15 14 18 25 30 25 29 52 84 92 94 97 97 97 77 64 68 72 74 60 58 65 69 80 87 89 80
17 16 14 14 16 17 22 23 23 36 39 32 27 18 13 18 13 11 16 25 27 25 30 66 93 100 98 96 96 88 78 82 76 77 67 71 74 81 85 96 96 83 84
24 20 20 16 17 20 29 25 23 30 44 38 28 21 13 16 10 9 15 27 26 24 32 86 95 98 95 97 96 96 89 95 81 81 72 74 85 90 94 95 92 95 95
22 21 20 23 20 26 29 25 22 28 47 43 30 24 14 15 8 10 13 24 28 23 31 85 96 96 97 96 96 98 81 92 100 99 90 87 96 95 92 83 88 89 95
19 18 15 14 21 25 33 27 25 29 48 52 33 25 15 14 9 12 13 14 30 26 32 58 96 96 97 96 100 96 97 96 95 91 92 96 95 98 94 81 82 82 81
17 15 11 9 12 19 36 29 34 39 47 60 38 23 15 13 10 10 16 10 22 37 33 39 95 96 96 96 97 97 97 96 96 96 98 97 96 98 94 93 95 97 96
13 9 7 7 8 10 28 31 37 47 46 64 40 23 16 13 10 12 16 15 10 29 32 42 92 95 97 97 97 97 96 97 91 93 96 98 95 97 96 93 90 94 90
8 7 6 6 6 9 21 32 42 52 49 66 45 28 18 14 10 13 18 16 14 10 20 42 54 58 80 90 95 97 96 96 96 96 95 94 88 93 88 87 91 79 80

GFSSE_500_rhum_108.txt.gz
RH
6 5 5 5 6 5 6 6 6 6 6 6 6 5 4 4 3 2 2 2 3 4 3 7 12 16 26 31 40 35 36 32 40 55 62 53 39 30 24 26 47 56 59
5 6 6 5 5 6 6 6 6 6 5 5 5 5 5 5 3 3 3 4 4 5 6 10 6 10 18 25 26 27 18 19 22 33 48 48 50 46 38 40 62 51 49
5 6 5 4 4 5 5 6 6 6 5 5 5 5 6 5 5 6 8 4 5 15 35 24 7 6 8 15 19 19 17 20 24 34 51 52 53 66 68 45 49 48 46
6 6 4 4 4 4 4 5 7 7 7 6 5 5 5 5 6 8 16 19 20 16 35 51 40 25 8 14 16 24 26 27 35 43 51 60 55 68 72 59 34 36 31
6 6 5 5 4 4 5 5 7 8 8 8 6 6 5 4 24 21 29 22 28 33 19 31 44 88 52 25 21 24 33 30 35 48 62 75 82 81 72 72 36 22 23
4 5 5 4 4 4 5 6 7 8 9 8 6 7 6 6 16 27 55 60 52 48 38 48 75 83 83 64 36 22 36 36 42 56 69 77 82 83 80 69 35 19 24
3 4 4 5 4 4 5 6 7 8 8 9 7 8 9 20 40 50 60 70 38 49 51 50 74 74 94 93 47 25 33 43 55 57 63 84 88 84 66 49 25 17 23
4 4 4 5 4 4 4 5 7 7 8 10 8 9 15 15 8 20 43 37 38 38 35 34 34 88 96 88 61 34 26 47 56 62 69 74 74 67 49 21 19 18 21
4 5 5 5 6 5 4 6 6 6 9 11 9 8 12 18 11 14 22 31 50 45 38 27 33 92 93 96 96 72 39 40 60 66 86 85 69 52 44 40 26 16 22
4 5 6 6 6 5 5 7 5 6 9 11 11 8 12 15 24 18 25 38 43 32 26 26 40 79 89 93 96 93 88 63 57 60 94 83 62 44 49 46 28 15 20
5 6 7 6 6 6 5 7 7 7 9 12 12 10 9 20 35 30 37 54 41 27 24 26 37 65 83 86 97 96 95 89 58 76 83 72 46 46 35 26 19 14 16
8 8 7 7 8 7 6 7 10 9 10 12 14 12 11 26 38 40 39 41 46 38 21 26 48 52 82 89 96 96 94 98 90 73 90 76 46 24 21 17 14 13 14
11 11 10 7 9 7 8 8 10 10 12 13 16 14 13 19 28 40 50 59 59 52 34 31 50 49 75 93 94 97 95 97 95 81 92 81 57 42 35 14 14 14 16
10 13 13 10 8 9 8 8 10 11 13 17 19 17 12 13 14 26 28 36 42 45 48 41 47 39 54 94 94 95 91 98 96 94 87 63 60 66 84 15 15 16 18
10 12 14 11 10 9 6 10 10 8 12 16 21 20 14 12 11 28 31 33 28 29 30 36 38 34 57 86 92 95 94 94 95 100 73 56 60 72 44 18 14 19 42
17 12 13 12 12 10 7 6 10 14 13 16 17 22 17 14 9 10 26 30 24 18 20 24 29 43 66 88 88 97 96 98 88 77 79 70 60 65 52 20 16 30 32
18 16 12 16 13 11 10 7 9 14 10 15 18 23 20 16 10 6 22 19 19 33 30 32 47 48 51 67 91 96 96 97 90 82 75 66 78 73 57 28 36 26 50
16 20 14 14 16 13 12 11 10 13 15 15 20 26 22 19 12 8 17 16 15 26 30 38 47 42 52 76 94 97 97 91 94 89 62 57 64 79 60 54 51 53 64
19 20 18 17 19 19 16 13 13 14 14 18 23 32 26 21 14 10 14 13 12 29 29 36 34 35 45 84 96 97 97 88 94 86 51 53 76 66 35 44 55 68 80
20 22 20 19 17 24 19 14 15 15 17 10 22 35 33 23 17 12 13 11 11 25 25 28 27 30 47 99 97 97 96 98 84 95 60 69 72 61 48 46 56 82 97
22 24 27 23 23 22 19 17 15 17 18 15 16 30 39 26 20 14 13 9 12 16 22 28 27 29 69 96 98 96 93 90 81 73 78 68 85 77 65 72 90 94 96
34 33 33 23 21 26 23 22 17 17 22 18 22 25 35 30 23 15 13 8 14 14 22 24 26 29 85 97 97 96 89 83 81 83 81 87 85 87 87 90 94 98 93
46 36 28 24 20 21 28 28 23 17 25 20 25 27 35 36 25 15 13 9 14 12 19 26 29 41 92 96 97 95 97 88 97 97 95 87 100 96 88 85 89 97 96
36 29 26 25 23 20 20 20 18 20 27 26 22 28 45 44 24 16 13 11 16 15 13 33 34 48 94 97 95 96 97 97 96 96 96 90 100 95 87 88 94 98 97
32 28 24 21 19 17 11 14 16 18 28 29 23 31 47 50 24 17 13 12 17 16 12 27 67 64 93 96 96 96 97 96 92 96 96 96 90 96 99 97 92 99 92
28 24 21 18 16 15 12 12 14 22 26 30 30 31 55 52 25 19 14 12 15 16 18 14 24 50 80 96 96 96 97 97 97 97 96 95 96 94 92 92 95 98 96

GFSSE_500_rhum_111.txt.gz
RH
3 4 4 4 4 3 4 4 4 4 5 4 4 4 4 4 4 4 3 2 2 2 2 2 2 4 14 15 18 27 39 42 47 59 66 75 72 51 45 46 40 41 51
3 4 4 4 3 3 3 4 4 5 5 4 4 4 4 4 4 4 4 6 4 2 3 9 12 10 7 9 20 28 39 36 33 32 33 50 56 48 37 32 28 42 49
4 4 4 4 3 3 3 3 3 4 5 6 6 5 4 4 4 5 7 10 9 9 12 25 32 25 10 7 12 25 27 29 26 22 27 38 45 50 51 44 44 51 52
4 4 4 4 4 4 3 4 4 4 5 6 7 6 5 5 4 5 18 16 22 21 20 23 32 49 39 23 8 11 20 23 18 19 18 40 57 52 55 62 52 51 52
5 5 5 4 4 4 3 4 3 4 4 5 6 6 5 6 5 5 14 20 32 36 43 40 30 26 36 65 39 11 18 21 24 29 39 49 53 60 62 73 68 42 37
6 6 6 5 5 4 3 4 4 4 4 4 6 7 6 6 7 23 36 46 58 57 44 51 40 43 62 75 74 56 26 30 50 46 57 64 69 78 83 79 77 50 26
7 7 6 5 5 5 4 4 4 4 4 5 6 7 6 6 17 12 8 17 35 38 34 43 47 39 46 74 90 89 43 27 54 63 66 76 74 88 91 87 75 53 21
8 8 6 5 5 5 4 4 5 4 4 5 6 7 7 7 12 18 8 10 26 28 34 37 38 34 28 82 97 98 80 40 44 64 72 86 95 93 95 89 65 40 18
8 8 8 5 5 6 5 4 4 5 4 5 6 6 8 8 11 17 28 20 22 31 46 47 41 33 62 96 91 91 95 73 55 66 84 92 86 82 81 72 26 19 16
7 7 9 5 6 6 6 5 4 6 5 6 6 6 7 8 9 23 33 27 27 35 46 33 26 24 39 76 90 98 96 96 73 69 79 79 96 94 67 53 30 22 16
8 8 8 7 7 7 7 7 5 5 5 5 7 8 8 9 12 24 31 32 38 37 44 34 31 27 30 42 76 88 97 94 97 78 74 63 95 92 59 43 45 35 23
14 10 9 10 9 8 8 8 7 5 5 5 7 8 10 11 12 18 22 32 39 47 49 52 39 30 42 41 72 91 94 94 98 96 86 86 92 82 55 42 43 31 21
19 11 11 12 11 10 9 9 8 6 6 5 6 8 9 12 12 11 13 22 35 46 44 44 45 35 31 44 58 87 97 97 97 96 96 86 90 90 32 33 26 24 17
26 18 12 12 14 14 10 10 8 7 7 6 5 6 8 11 13 11 10 19 34 29 34 38 44 44 39 43 38 88 95 96 97 97 96 97 94 58 42 32 22 21 14
28 25 16 14 14 16 12 11 10 9 8 8 6 6 7 11 14 14 11 16 44 28 40 29 20 22 32 35 37 59 86 96 96 97 97 97 96 96 61 51 34 86 14
32 23 17 18 16 15 15 14 12 9 11 10 8 7 8 11 14 16 13 7 16 18 29 22 24 20 21 35 42 74 78 88 96 95 96 97 92 82 60 71 74 24 15
35 26 12 12 16 19 16 16 17 11 10 9 9 8 10 10 18 17 15 9 10 15 17 16 28 29 34 44 49 48 61 87 97 88 93 97 89 45 62 63 63 24 14
41 28 15 12 12 17 18 16 17 16 13 12 11 12 12 12 18 22 19 12 10 12 12 14 30 34 49 46 41 42 90 94 94 90 99 86 78 72 61 72 63 32 21
41 31 20 15 15 15 19 18 19 18 16 17 13 14 17 16 18 23 22 16 11 11 10 12 25 32 35 34 31 42 95 98 98 96 100 78 81 81 72 75 79 41 45
32 30 20 17 16 16 19 21 19 18 20 20 16 16 21 22 19 24 29 20 14 13 8 12 17 23 24 26 26 46 94 96 98 96 99 79 72 71 61 72 88 36 42
25 22 19 17 16 20 23 23 21 18 19 20 20 17 24 26 27 27 34 24 16 13 7 13 17 26 26 24 26 35 93 97 97 97 91 77 65 66 80 68 38 26 44
25 21 18 18 20 26 30 31 26 23 20 20 22 18 28 28 30 33 42 27 17 13 8 12 16 22 26 27 40 32 91 97 93 95 98 94 70 53 69 76 61 41 72
28 24 21 22 39 45 44 30 27 25 23 22 26 23 27 28 30 37 50 28 17 13 9 12 13 14 28 32 39 83 98 88 81 91 95 86 83 78 90 96 87 86 90
39 28 26 29 44 47 35 28 26 23 22 25 25 21 23 28 24 38 55 28 17 14 10 13 16 15 37 40 62 97 97 93 97 96 96 96 96 91 84 93 91 94 94
36 29 31 39 55 33 29 27 24 22 20 22 26 22 24 28 24 29 60 31 18 15 11 14 18 14 28 61 78 96 95 96 96 96 96 96 97 97 96 95 98 93 100
38 35 36 39 35 48 46 26 18 18 15 16 21 32 37 37 26 32 64 36 19 16 12 14 16 17 16 47 76 95 95 97 97 97 97 96 96 96 96 97 90 92 100

GFSSE_500_rhum_114.txt.gz
RH
6 3 3 4 3 3 3 3 4 4 4 4 3 3 3 3 3 3 3 3 4 4 2 2 2 3 4 6 18 20 24 31 37 47 60 75 75 78 78 71 67 44 38
6 4 4 4 4 3 3 3 3 3 4 4 4 4 4 4 4 4 4 4 5 8 6 5 9 18 19 23 21 16 20 32 47 58 69 69 70 77 69 46 41 33 46
7 6 4 4 4 4 3 3 3 3 3 4 3 4 4 4 4 4 4 6 13 13 18 16 20 26 30 31 16 17 27 35 47 51 47 50 48 54 60 48 37 32 43
8 6 6 4 5 5 4 3 4 3 3 3 3 4 4 5 4 5 5 5 16 19 26 36 32 32 30 36 34 20 29 35 41 44 47 49 44 43 46 49 53 51 55
10 6 6 5 5 6 5 4 4 3 3 3 4 4 5 5 4 6 10 21 35 42 55 40 37 41 30 28 36 42 28 23 29 38 39 40 52 57 49 51 62 65 56
11 9 7 7 6 6 6 4 4 4 4 4 4 5 5 5 5 8 14 9 10 16 47 34 33 35 35 42 42 66 75 41 31 36 55 71 70 57 65 66 72 78 54
14 10 9 8 8 8 8 5 5 5 5 4 5 6 6 6 6 7 12 13 7 11 28 27 36 39 45 41 52 69 80 83 61 51 58 59 66 83 82 84 91 83 63
16 11 9 10 9 9 10 7 6 5 6 4 4 6 7 7 6 8 10 21 22 17 23 30 41 44 39 37 49 66 97 97 65 55 70 76 63 96 93 97 96 92 69
18 14 12 10 9 10 9 8 6 6 5 5 5 5 7 8 7 7 10 25 30 26 28 38 46 49 40 28 41 91 84 100 95 53 74 92 98 94 94 90 95 89 66
24 20 14 12 11 9 10 9 7 7 6 6 5 5 6 8 8 8 10 24 30 29 32 44 49 33 27 30 52 85 85 89 95 74 66 92 88 87 95 91 83 51 31
26 23 17 14 12 9 8 9 9 8 7 6 6 5 6 7 6 7 14 16 23 36 46 46 52 40 33 27 33 46 82 92 98 97 72 77 95 96 95 96 68 43 20
24 24 20 18 14 12 8 8 10 10 9 7 6 5 6 7 4 6 10 12 12 21 43 57 61 58 50 36 31 46 58 87 96 93 94 66 84 87 88 94 64 52 36
23 23 24 22 17 14 11 9 9 11 11 9 8 7 5 6 4 5 9 11 10 15 34 41 44 44 41 37 30 38 50 80 95 93 93 92 96 96 77 96 63 43 42
22 25 25 25 25 19 14 12 10 11 12 10 9 8 7 6 5 7 10 13 11 22 45 37 38 30 18 29 32 38 43 52 94 96 95 94 98 97 91 95 49 32 37
22 26 27 28 29 24 19 16 13 12 13 13 11 10 10 7 6 7 12 13 13 8 25 33 36 31 15 16 24 26 34 41 68 90 97 98 95 99 96 95 79 21 20
26 28 29 33 36 29 22 20 16 14 14 15 13 10 11 11 8 7 10 14 14 11 10 23 19 22 29 29 29 25 34 43 73 81 82 96 97 96 95 89 50 39 27
33 30 28 34 42 36 24 21 18 17 16 16 16 14 13 13 12 10 10 12 17 14 12 15 15 13 14 28 33 35 37 42 47 61 84 97 97 96 95 95 81 54 64
48 44 39 36 41 41 28 24 19 17 18 17 18 18 17 13 15 12 11 11 21 21 14 12 14 10 8 25 35 38 40 36 48 84 93 96 97 96 96 92 71 74 45
42 42 41 41 38 34 32 22 19 17 19 20 21 20 17 14 14 16 13 14 23 27 18 13 13 8 9 17 23 22 26 29 40 95 97 97 98 100 96 47 70 66 58
38 36 37 35 31 34 30 20 18 18 22 24 22 19 16 15 16 17 17 18 23 31 25 15 12 8 13 17 24 21 19 25 59 97 97 97 90 79 76 77 65 72 81
52 38 35 30 26 27 26 27 20 24 29 24 21 19 17 18 19 18 21 18 20 34 30 16 12 8 12 16 21 26 17 22 65 98 97 98 98 89 78 74 77 70 78
62 50 41 36 26 22 20 16 24 37 34 32 31 24 21 24 25 22 24 20 20 34 34 18 13 8 11 14 16 21 20 23 26 95 97 98 96 85 74 65 68 76 77
52 48 44 40 30 22 19 22 44 56 83 87 47 32 30 28 25 26 27 22 22 36 37 19 13 9 10 15 15 25 32 44 55 91 97 98 94 92 68 53 81 75 63
44 46 48 48 45 39 22 19 36 49 61 37 28 27 32 30 26 30 31 25 23 38 39 19 14 10 12 16 15 37 44 77 83 89 94 90 95 97 86 66 67 77 83
48 43 43 42 41 58 51 63 46 55 36 30 28 27 32 35 28 32 34 29 26 39 44 21 14 11 11 16 16 24 67 93 100 96 94 95 95 97 92 96 86 88 88
57 48 45 42 40 45 47 40 92 96 66 38 25 21 26 33 26 29 36 32 29 43 49 23 15 12 10 13 17 18 65 95 97 96 96 97 97 97 97 97 97 95 95

GFSSE_500_rhum_117.txt.gz
RH
9 5 4 3 3 3 3 3 3 3 2 3 3 3 3 3 3 4 3 3 3 3 4 6 3 3 4 9 11 27 25 34 33 44 59 60 67 73 68 82 89 86 80
14 8 4 4 3 4 4 4 3 3 3 3 3 3 3 3 3 4 4 4 4 6 9 10 12 10 15 21 18 28 31 26 30 43 51 71 81 89 86 88 65 67 60
13 12 9 5 4 4 4 4 4 4 3 3 3 3 4 4 4 4 4 5 4 8 16 20 22 29 26 30 34 29 27 24 27 34 56 85 93 91 86 85 70 43 36
18 15 10 5 5 5 5 5 4 4 4 4 4 4 4 5 4 4 5 8 13 15 23 39 39 31 34 34 34 37 27 20 28 41 65 75 74 62 61 64 65 55 40
18 17 12 7 6 6 6 6 6 5 4 5 4 4 5 6 5 4 5 13 15 13 12 27 40 27 33 36 34 39 44 37 31 39 42 57 68 70 64 52 55 62 64
21 18 15 9 6 6 6 7 7 5 5 5 5 5 6 6 6 6 5 11 13 13 10 13 22 26 33 36 49 51 60 67 67 36 27 43 57 50 58 70 62 65 79
23 20 18 13 10 8 8 7 7 6 5 6 5 5 5 6 7 7 6 10 13 21 16 15 24 32 35 36 41 43 53 76 90 76 86 82 65 67 60 68 72 72 85
21 22 22 18 14 9 8 7 8 8 7 5 6 5 5 6 7 7 7 8 14 23 29 22 26 30 38 43 46 37 56 95 97 98 82 84 84 85 88 83 87 87 91
22 24 24 22 18 12 9 8 8 10 9 6 6 6 5 6 7 7 7 8 13 24 28 26 29 33 36 39 32 33 45 94 89 98 96 78 67 83 95 95 96 98 95
23 23 25 26 24 17 12 9 9 10 10 8 6 7 7 6 7 8 6 7 17 17 27 42 42 38 38 40 45 38 46 79 88 93 96 60 84 95 90 96 97 99 94
23 20 26 28 26 22 16 12 9 9 10 11 8 7 8 6 7 7 5 7 11 14 14 22 38 46 46 41 41 36 40 54 87 93 98 95 62 90 98 95 96 89 81
11 14 23 27 27 24 22 17 13 9 9 10 11 9 8 8 6 7 5 9 15 11 10 14 29 35 34 33 33 41 35 46 69 93 99 99 90 82 96 96 97 97 58
12 14 20 26 28 26 26 22 16 12 9 10 11 12 9 9 8 7 6 7 8 12 10 18 35 34 29 29 20 29 40 42 43 73 99 96 93 76 90 95 84 94 65
20 12 16 22 26 27 27 29 23 17 12 10 11 13 11 10 10 8 7 7 9 9 11 8 20 32 30 35 16 17 25 43 38 39 80 95 95 94 96 96 92 93 60
27 23 20 20 24 28 28 31 30 21 16 12 12 13 13 11 12 11 9 7 8 10 12 10 8 15 28 20 17 23 21 24 26 33 46 94 94 100 92 97 93 93 71
33 32 30 25 26 27 28 35 36 27 22 17 13 14 16 14 13 13 13 12 8 9 13 14 11 10 12 12 12 11 20 29 29 37 72 76 88 93 98 97 97 93 86
39 39 36 31 30 32 31 31 41 33 23 21 15 15 16 16 15 16 16 16 12 9 12 18 16 12 11 11 9 9 19 23 39 44 48 50 64 79 96 98 97 96 92
46 50 60 36 39 43 47 42 44 39 24 22 17 17 18 18 18 18 18 18 15 12 11 20 21 16 12 11 7 8 16 17 33 40 47 55 59 90 98 97 92 93 61
52 54 58 56 52 55 57 55 47 41 27 23 19 21 21 21 20 22 19 18 17 15 12 14 25 20 15 11 6 10 15 18 18 28 37 38 94 96 96 97 94 95 89
55 53 46 46 47 47 45 48 44 40 28 25 24 25 26 23 20 23 22 20 20 18 15 12 22 25 17 12 7 11 16 18 19 26 25 42 91 98 97 93 96 96 80
84 59 47 42 40 38 37 38 36 38 35 33 30 31 30 25 21 24 23 22 21 22 20 14 21 28 20 14 8 8 15 16 18 21 30 83 96 97 96 86 100 62 66
77 59 47 42 40 38 35 33 30 30 29 40 29 33 32 29 30 28 26 26 27 24 20 15 22 30 23 14 8 8 13 15 20 27 31 87 98 94 91 88 91 65 68
71 64 55 58 56 49 41 33 29 27 23 58 77 89 91 82 44 33 29 27 34 31 23 18 18 29 25 15 9 10 13 16 26 34 52 83 97 97 99 96 85 82 70
81 78 67 65 58 57 49 41 43 26 22 70 100 97 84 67 59 32 31 30 39 38 27 20 16 33 28 16 10 11 12 15 27 40 52 72 95 96 97 89 76 82 70
77 73 68 60 55 53 50 48 46 58 67 49 55 87 59 55 42 35 31 29 40 44 33 22 14 29 31 18 11 9 11 15 20 57 86 89 84 97 97 90 84 66 64
82 80 70 63 56 52 50 49 51 62 72 94 95 79 43 50 49 43 32 31 39 43 37 25 17 34 34 18 11 8 9 13 18 57 97 98 100 94 98 98 96 92 80

GFSSE_500_rhum_120.txt.gz
RH
12 15 13 6 4 3 3 3 3 3 3 3 3 3 3 3 4 3 3 3 3 4 4 5 8 7 7 6 9 16 20 35 38 52 61 49 65 72 89 85 93 99 98
16 16 13 10 4 4 4 4 4 4 4 3 3 3 3 4 4 4 4 3 4 4 6 13 15 19 18 21 29 21 19 31 38 46 57 53 50 72 87 88 98 93 82
15 18 15 12 7 5 4 4 5 4 4 3 3 4 4 5 6 5 4 4 6 10 11 12 17 22 34 31 34 35 35 31 31 31 48 60 58 71 92 97 96 93 72
17 18 16 15 12 7 5 4 5 4 4 4 4 4 4 6 6 6 6 5 6 12 15 18 32 42 35 32 35 36 38 34 26 23 38 56 61 98 92 90 81 79 69
11 17 17 18 14 10 6 5 5 5 4 4 4 4 5 6 6 6 7 6 5 9 13 8 12 23 26 33 31 32 41 45 50 35 25 46 57 65 74 66 67 72 70
7 10 18 19 17 16 12 7 6 6 5 5 4 4 5 5 6 6 7 6 6 7 14 18 12 16 25 32 34 37 37 36 59 68 61 34 52 55 60 64 76 71 63
9 8 18 21 20 21 16 10 6 6 6 5 5 5 4 4 6 6 7 7 7 7 14 22 21 22 25 30 35 39 37 34 62 86 89 80 88 83 55 72 69 79 71
11 12 20 23 23 23 20 14 8 7 7 7 6 5 5 5 5 6 7 7 5 9 13 21 23 21 25 31 36 35 33 34 70 96 86 98 88 96 86 74 73 73 77
13 14 26 25 25 26 26 20 13 8 7 7 7 6 6 6 5 6 7 6 4 6 9 14 22 34 32 35 36 35 46 58 67 97 88 91 97 94 96 96 93 87 85
20 18 23 29 25 27 28 25 19 12 9 8 8 8 7 6 5 5 7 6 4 6 8 11 13 20 35 38 44 41 38 35 36 51 86 94 85 78 78 96 96 97 94
28 23 20 26 24 25 28 28 23 18 13 9 8 9 10 7 6 6 7 6 5 12 8 7 8 12 24 32 33 29 39 40 46 72 86 93 95 85 92 97 96 97 92
22 24 23 21 23 24 26 28 26 24 18 13 9 9 10 10 7 7 7 6 5 6 6 8 8 10 24 31 29 27 25 33 38 40 52 90 93 98 92 97 97 97 94
20 21 18 23 22 20 24 28 27 26 24 17 12 10 10 11 8 8 8 7 6 6 6 8 8 8 14 26 28 31 16 19 29 35 37 70 93 98 98 96 96 97 96
25 25 20 21 16 18 25 27 28 28 29 24 17 14 12 11 11 9 10 10 8 6 7 9 7 7 7 9 22 22 18 19 20 27 26 50 85 96 97 96 96 96 96
31 31 26 24 25 18 20 25 28 28 29 31 22 18 14 12 12 11 12 12 12 10 6 7 7 7 8 8 8 9 12 14 22 28 23 35 79 96 94 97 87 99 98
34 34 31 26 31 26 24 22 26 28 32 37 28 23 19 15 14 14 13 14 15 15 11 8 7 9 9 9 10 8 7 8 10 20 28 30 65 93 97 95 94 89 96
41 38 36 30 35 34 32 26 25 31 37 43 38 26 22 18 16 16 17 16 17 18 16 11 8 8 10 10 11 11 8 6 10 18 19 33 41 67 82 91 92 97 91
47 41 38 38 38 47 40 30 28 31 36 46 44 30 22 22 21 18 20 20 17 18 18 17 10 7 9 12 13 13 10 5 9 14 14 27 37 44 52 64 92 97 95
53 48 44 42 44 57 62 43 52 44 52 53 48 38 25 26 26 21 23 23 20 17 18 20 18 10 8 9 14 14 12 6 10 16 17 18 25 35 42 64 82 96 97
58 55 52 49 50 61 69 62 64 63 60 54 46 40 32 29 28 25 25 26 22 20 20 21 20 18 9 9 13 16 14 8 6 16 19 20 19 18 27 84 96 97 97
70 60 56 56 55 60 57 63 64 55 54 58 55 43 35 31 30 28 28 28 26 23 23 23 22 22 15 11 15 17 16 9 6 13 16 16 17 20 46 73 98 97 97
93 80 70 62 60 57 51 53 58 48 44 42 50 44 36 38 33 31 32 30 32 28 27 27 25 24 20 12 20 18 18 10 6 12 15 19 21 18 76 96 97 97 95
82 80 71 65 73 58 57 62 52 48 43 39 35 35 41 53 50 49 47 45 39 33 30 31 30 25 22 17 18 20 20 11 6 12 15 29 32 37 78 97 97 93 84
79 62 64 63 76 70 66 64 62 58 51 46 46 41 35 46 81 79 84 90 85 43 36 36 36 30 23 19 21 30 21 14 6 10 15 22 36 44 65 96 95 87 85
65 58 61 64 75 88 81 68 67 63 59 51 48 44 59 77 99 97 97 65 44 36 36 43 44 31 24 22 24 36 25 15 7 6 14 19 28 55 72 95 97 97 97
97 95 88 87 89 97 93 76 72 65 56 49 51 88 89 67 71 90 98 86 53 39 34 41 40 33 25 23 20 38 27 16 8 6 9 15 54 84 100 78 95 97 94